Location: Cranbrook Institute of Science
(42.5830°N, 83.2450°W)
Time: 11:52:35
(UTC-05:00)

Daily predictions for brighter satellites

Satellite Brightness Start Highest point End
(mag) Time Altitude Azimuth Time Altitude Azimuth Time Altitude Azimuth
NOAA 12 4.2 18:44:05 10° SSE 18:49:17 59° ENE 18:54:33 10° N
Cosmos 2322 Rocket 3.5 18:44:32 10° NW 18:49:51 45° WSW 18:55:10 10° S
Abrixas rocket 3.6 18:47:05 10° SSW 18:49:55 25° SE 18:52:46 10° E
Meteor 1-28 Rocket 3.2 18:46:33 10° NNE 18:50:23 80° ESE 18:54:11 10° S
FENGYUN 3A 4.3 18:45:41 10° SE 18:50:28 33° ENE 18:55:15 10° N
Cosmos 407 Rocket 4.2 18:47:39 10° SSW 18:52:51 62° WNW 18:58:08 10° NNE
Tiangong 2 3.9 18:51:30 10° WSW 18:53:06 13° SSW 18:54:42 10° S
FREGAT/IRIS 3.3 18:50:52 10° SE 18:53:43 35° ENE 18:56:34 10° N
Genesis I 3.5 18:50:47 10° NNW 18:54:36 46° NE 18:58:23 10° SE
Okean 1-7 Rocket 4.4 18:52:31 10° NNE 18:56:35 31° ENE 19:00:33 10° SE
Cosmos 1536 Rocket 3.6 18:52:11 10° N 18:56:40 90° NNW 19:01:09 10° S
Cosmos 1484 Rocket 4.4 18:54:01 10° S 18:57:45 41° W 19:01:27 10° NNW
GPS 2-04 Rocket1 4.4 18:54:50 10° SW 18:58:16 24° SSE 19:01:46 10° ESE
Cosmos 676 Rocket 4.2 18:54:41 10° SSW 18:59:52 76° WNW 19:05:07 10° NNE
Cosmos 1818 4.4 18:58:56 10° SW 19:04:15 53° NW 19:09:38 10° NNE
Cosmos 1633 2.5 19:00:56 10° S 19:04:35 74° E 19:08:16 10° NNE
Cosmos 1140 Rocket 3.4 19:01:37 10° SSW 19:06:44 77° ESE 19:11:54 10° NNE
METEOR-M 4.1 19:02:12 10° SSE 19:07:33 83° ENE 19:12:54 10° NNW
Cosmos 2322 3.7 19:04:05 10° NNW 19:09:51 89° ENE 19:15:33 10° SSE
Cosmos 614 Rocket 3.9 19:04:57 10° S 19:09:57 61° ESE 19:14:58 10° NNE
Cosmos 1570 Rocket 4.1 19:04:48 10° NNW 19:09:58 55° ENE 19:15:05 10° SE
ATLAS CENTAUR R/B 3.5 19:11:48 10° SSE 19:13:43 13° SE 19:14:33 12° SE
Meteor 1-19 Rocket 4.2 19:08:24 10° N 19:14:07 79° E 19:19:54 10° SSE
SJ-6B 2.7 19:10:33 10° SSE 19:14:31 73° ENE 19:18:26 10° N
Cosmos 405 Rocket 4.0 19:19:01 10° NNE 19:22:16 22° ENE 19:23:33 19° E
Cosmos 1300 Rocket 3.7 19:18:24 10° S 19:22:49 82° W 19:27:17 10° N
USA 229 DEB 3.9 19:15:53 10° NNW 19:22:54 57° NE 19:29:54 10° SE
USA 229 3.9 19:15:59 10° NNW 19:23:00 57° NE 19:29:56 11° SE
Helios 1A 4.0 19:23:44 18° ESE 19:25:45 26° ENE 19:29:12 10° NNE
Cosmos 2237 Rocket 3.3 19:21:10 10° N 19:25:49 25° NE 19:28:14 19° E
Okean 2 4.1 19:22:11 10° NNE 19:25:55 31° ENE 19:29:22 12° SE
CZ-2D R/B 4.0 19:24:00 14° SE 19:26:38 30° ENE 19:30:01 10° N
Gbstr 26 Del rocket 2.7 19:22:50 10° WSW 19:26:40 75° NNW 19:29:28 17° NE
Cosmos 2333 4.3 19:21:02 10° NNW 19:26:42 58° ENE 19:32:23 10° SE
Cosmos 2237 4.2 19:21:43 10° NNW 19:27:30 84° ENE 19:33:13 10° SSE
COSMOS 2428 2.7 19:21:49 10° NNW 19:27:30 67° ENE 19:33:09 10° SSE
H-2A R/B 3.1 19:24:22 10° SE 19:27:52 41° ENE 19:31:26 10° N
Spot 2 Rocket 3.6 19:23:06 10° SSE 19:28:00 53° ENE 19:32:56 10° N
Helios 1B rocket 3.5 19:26:06 10° NE 19:29:26 23° E 19:32:44 10° SSE
Meteor 2-4 Rocket 3.6 19:26:38 10° N 19:32:11 80° E 19:37:34 10° SSE
Cosmos 1238 Rocket 3.4 19:29:32 10° NNW 19:32:22 43° W 19:35:15 10° SSW
NOSS 8 (H) 4.4 19:29:58 10° SW 19:33:20 84° NW 19:36:45 11° NE
Meteor 1-23 Rocket 4.2 19:29:25 10° N 19:35:14 69° E 19:40:56 10° SSE
Resurs 01 Rocket 1.5 19:32:22 10° SSE 19:36:44 65° ENE 19:41:06 10° N
SL-19 R/B 4.3 19:31:35 10° SSE 19:37:15 71° ENE 19:43:21 10° NNW
Cosmos 2360 Rocket 3.3 19:33:57 10° NW 19:39:20 46° WSW 19:44:42 10° S
Cosmos 2208 Rocket 4.1 19:34:12 10° NNW 19:39:42 89° WSW 19:45:05 10° SSE
Cosmos 2219 Rocket 2.4 19:34:30 10° NNW 19:39:55 48° ENE 19:43:37 20° SE
Cosmos 1850 Rocket 4.1 19:37:12 10° SSW 19:42:31 82° WNW 19:47:53 10° NNE
Cosmos 1536 3.0 19:39:49 10° SSW 19:43:47 75° W 19:47:47 10° N
Envisat 4.0 19:44:07 25° ENE 19:44:37 26° ENE 19:48:45 10° N
Cosmos 2327 Rocket 4.4 19:39:07 10° S 19:45:17 69° E 19:51:36 10° NNE
Cosmos 2219 3.2 19:40:07 10° SSW 19:45:52 85° ESE 19:51:38 10° NNE
HJ-1C 3.8 19:44:52 10° S 19:48:12 63° WSW 19:51:34 10° NNW
Cosmos 2227 Rocket 2.9 19:44:41 10° SSE 19:49:26 28° ESE 19:49:27 28° ESE
Resurs 1-3 3.5 19:45:15 10° SSE 19:49:37 75° ENE 19:54:01 10° N
NOSS 3-1 (C) 4.4 19:46:48 10° NNW 19:53:56 46° NE 19:57:53 28° E
SL-16 R/B 3.6 19:56:29 10° N 20:00:38 21° NE 20:00:38 21° NE
Okean 1 Rocket 4.4 19:57:31 10° SSW 20:01:46 41° WNW 20:06:01 10° N
OTV 4 3.0 20:01:45 10° SSW 20:02:21 13° SSW 20:02:21 13° SSW
Cosmos 2074 Rocket 4.1 19:58:44 10° S 20:04:59 80° W 20:11:19 10° N
Cosmos 1892 Rocket 3.4 20:00:59 10° N 20:05:20 66° E 20:06:48 39° SSE
Spot 1 3.8 20:03:52 38° SSE 20:05:20 73° ENE 20:09:31 10° N
USA 186 4.1 20:09:28 14° N 20:09:28 14° N 20:09:55 10° N
SAR-Lupe-1 3.9 20:10:04 83° ENE 20:10:04 83° ENE 20:13:39 10° NNW
Cosmos 2184 Rocket 4.2 20:04:00 10° SSW 20:10:17 76° W 20:16:35 10° N
SAR-Lupe-4 3.5 20:10:00 53° S 20:10:45 81° WSW 20:14:20 10° NNW
Cosmos 1025 Rocket 3.8 20:07:34 10° NNW 20:11:51 53° W 20:16:07 10° S
ALOS 3.6 20:08:51 10° SSW 20:13:13 40° W 20:17:38 10° NNW
Cosmos 2333 Rocket 2.1 20:16:07 10° NNW 20:21:55 83° ENE 20:23:54 43° SSE
Meteor 2-13 Rocket 4.4 20:18:48 10° S 20:24:52 85° W 20:31:01 10° N
Cosmos 1980 3.6 20:19:31 10° NNW 20:25:11 71° ENE 20:26:08 58° ESE
Cosmos 841 Rocket 4.2 20:20:43 10° N 20:24:32 37° NNE 20:24:32 37° NNE
Abrixas rocket 3.5 20:23:17 10° WSW 20:25:43 41° W 20:25:43 41° W
Nadezhda 3 Rocket 3.8 20:21:56 10° N 20:28:08 80° E 20:31:35 28° SSE
Cosmos 1544 Rocket 3.5 20:25:39 10° S 20:29:58 80° W 20:34:19 10° N
GEOS 3 Rocket 3.9 20:32:27 23° NNE 20:35:40 65° NW 20:40:54 10° SW
Cosmos 2341 Rocket 3.9 20:30:30 10° S 20:36:48 71° E 20:43:11 10° NNE
Cosmos 1763 Rocket 3.7 20:32:06 10° NNW 20:36:23 55° NNE 20:36:23 55° NNE
GPS 2-04 Rocket1 4.4 20:33:45 10° WSW 20:36:30 28° SSW 20:36:30 28° SSW
Cosmos 2154 Rocket 4.0 20:33:13 10° S 20:39:35 84° W 20:45:58 10° N
NOSS 0 Rocket 4.0 20:33:50 10° NNW 20:39:58 74° WSW 20:42:07 42° S
Cosmos 2082 4.5 20:44:57 10° SSW 20:48:27 39° SSW 20:48:27 39° SSW
Helios 1B rocket 4.2 21:01:06 10° N 21:04:44 30° WNW 21:08:22 10° SW
Cosmos 2237 Rocket 2.7 21:04:40 10° NNW 21:10:07 55° WSW 21:10:07 55° WSW
Cosmos 2297 Rocket 4.2 21:07:09 10° SSW 21:08:19 17° SSW 21:08:19 17° SSW
Envisat 4.3 21:24:19 37° WNW 21:24:19 37° WNW 21:28:13 10° NNW
Cosmos 2219 Rocket 4.1 21:19:04 10° NW 21:23:32 25° WSW 21:25:25 21° SW
NOSS 3-1 (A) 4.0 21:19:08 10° NW 21:26:48 79° WSW 21:26:48 79° WSW
ATLAS 2AS CENTAUR R/B 3.8 21:25:01 10° NNW 21:31:17 40° NNE 21:31:17 40° NNE
Cosmos 2227 Rocket 3.6 21:27:53 10° SW 21:31:29 34° W 21:31:29 34° W
SL-16 R/B 3.8 21:39:45 10° NNW 21:42:33 30° NW 21:42:33 30° NW
